Location: Rowland
(34.5359°N, 79.2929°W)
Time: 20:09:43
(UTC+00:00)

Transit 2A - Pass Details

Date: 07 October 2022
Orbit: 598 x 959 km, 66.7° (Epoch: 03 December)

Event Time Altitude Azimuth Distance (km) Brightness Sun altitude
Rises 01:33:41 0° 162° (SSE) 2,973 - -33.3°
Reaches altitude 10° 01:37:05 10° 137° (SE) 2,008 - -34.0°
Maximum altitude 01:39:18 14° 107° (ESE) 1,753 - -34.4°
Drops below altitude 10° 01:41:29 10° 77° (ENE) 1,960 - -34.8°
Sets 01:44:42 0° 51° (NE) 2,847 - -35.4°
